Weather History for Aswan, Egypt

Change the Weather History Date:

Sunday, October 21, 2012

  Actual Average Record
Temperature  
Mean Temperature 84 °F -  
Max Temperature 95 °F 85 °F 105 °F (2010)
Min Temperature 74 °F 63 °F 62 °F (1997)
Cooling Degree Days 20    
Growing Degree Days 34 (Base 50)    
Moisture  
Dew Point 55 °F    
Average Humidity 38    
Maximum Humidity 61    
Minimum Humidity 18    
Precipitation  
Precipitation 0.03 in 0.00 in - ()
Sea Level Pressure  
Sea Level Pressure 29.84 in    
Wind  
Wind Speed 7 mph ()    
Max Wind Speed 12 mph    
Max Gust Speed -    
Visibility 5.9 miles    
Events      
Averages and records for this station are not official NWS values.
T = Trace of Precipitation, MM = Missing Value Source: Averaged Metar Reports

Daily Weather History Graph

Daily Weather History Graph

Search for Another Location

Airport:

Trip Planner

Search our weather history database for the weather conditions in past years. The results will help you decide how hot, cold, wet, or windy it might be!

Date:

Astronomy

Oct. 21, 2012 Rise Set
Actual Time 5:49 AM EET 5:17 PM EET
Civil Twilight 5:26 AM EET 5:40 PM EET
Nautical Twilight 4:59 AM EET 6:06 PM EET
Astronomical Twilight 4:33 AM EET 6:33 PM EET
Moon 11:40 AM EET (10/21) 11:00 PM EET (10/21)
Length of Visible Light 12h 14m
Length of Day
11h 28m
Waxing Crescent, 42% of the Moon is Illuminated
Oct 21
Waxing Crescent
Oct 22
First Quarter
Oct 29
Full
Nov 7
Last Quarter
Nov 14
New

Hourly Weather History & Observations

Time (EET) Temp. Heat Index Dew Point Humidity Pressure Visibility Wind Dir Wind Speed Gust Speed Precip Events Conditions
12:00 AM 78.8 °F - 60.8 °F 54% 29.83 in - East 8.1 mph - N/A   Clear
1:00 AM 78.8 °F - 60.8 °F 54% 29.83 in - NNE 8.1 mph - N/A   Clear
2:00 AM 77 °F - 60 °F 45% 29.81 in 6 mi NNW 9.2 mph - -   Partly Cloudy
2:00 AM 77.0 °F - 59.0 °F 54% 29.83 in - NNW 9.2 mph - N/A   Clear
3:00 AM 77.0 °F - 59.0 °F 54% 29.83 in - North 6.9 mph - N/A   Clear
4:00 AM 75.2 °F - 57.2 °F 53% 29.83 in - NNE 4.6 mph - N/A   Clear
5:00 AM 75.2 °F - 57.2 °F 53% 29.86 in - NE 4.6 mph - N/A   Clear
6:00 AM 75.2 °F - 55.4 °F 50% 29.86 in - NNE 5.8 mph - N/A   Clear
7:00 AM 77.0 °F - 57.2 °F 50% 29.86 in - NNE 5.8 mph - N/A   Clear
8:00 AM 82 °F - 57 °F 32% 29.88 in 6 mi NW 10.4 mph - -   Scattered Clouds
8:00 AM 82.4 °F 82.0 °F 57.2 °F 42% 29.92 in 6.2 mi NW 10.4 mph - N/A   Scattered Clouds
9:00 AM 78.8 °F - 64.4 °F 61% 29.89 in 5.0 mi North 6.9 mph - N/A   Scattered Clouds
10:00 AM 87.8 °F 87.1 °F 59.0 °F 38% 29.86 in - NNE 9.2 mph - N/A   Clear
11:00 AM 93.2 °F - 50.0 °F 23% 29.83 in - NNE 11.5 mph - N/A   Clear
12:00 PM 95.0 °F - 50.0 °F 22% 29.83 in - NE 9.2 mph - N/A   Clear
1:00 PM 93.2 °F - 48.2 °F 21% 29.80 in - NNE 5.8 mph - N/A   Clear
2:00 PM 91 °F - 53 °F 18% 29.76 in 6 mi North 6.9 mph - -  
2:00 PM 91.4 °F 89.1 °F 53.6 °F 28% 29.80 in - North 6.9 mph - N/A   Clear
3:00 PM 93.2 °F - 50.0 °F 23% 29.80 in - North 6.9 mph - N/A   Clear
4:00 PM 93.2 °F - 51.8 °F 24% 29.80 in - NNE 8.1 mph - N/A   Clear
5:00 PM 91.4 °F - 51.8 °F 26% 29.80 in - NNE 5.8 mph - N/A   Clear
6:00 PM 89.6 °F - 51.8 °F 27% 29.80 in - North 4.6 mph - N/A   Clear
7:00 PM 86.0 °F 84.2 °F 53.6 °F 33% 29.83 in - North 3.5 mph - N/A   Clear
8:00 PM 85 °F - 54 °F 24% 29.85 in 6 mi NNE 4.6 mph - -  
8:00 PM 84.2 °F 82.8 °F 53.6 °F 35% 29.86 in - NNE 4.6 mph - N/A   Clear
9:00 PM 82.4 °F 81.4 °F 53.6 °F 37% 29.89 in - North 3.5 mph - N/A   Clear
10:00 PM 80.6 °F 80.3 °F 53.6 °F 39% 29.89 in - NNE 5.8 mph - N/A   Clear
11:00 PM 80.6 °F - 51.8 °F 37% 29.89 in - NNW 6.9 mph - N/A   Clear